Regional Weather Roundup
Issued by NWS Spokane, WA

Home | Current Version | Previous Version | Text Only | Print | Product List | Glossary On
Versions: 1 2 3 4 5 6 7 8 9 10 11 12 13 14 15 16 17 18 19 20 21 22 23 24 25 26 27 28 29 30 31 32 33 34 35 36 37 38 39 40 41 42 43 44 45 46 47 48 49 50
000
NZUS01 KOTX 041710
RWROTX
EASTERN WASHINGTON/NORTHERN IDAHO ROUNDUP
NATIONAL WEATHER SERVICE, SPOKANE WA
1000 AM PDT SAT JUL 04 2015

Note: "fair" indicated few or no clouds below 12,000 feet with no
significant weather and/or obstructions to visibility.

...NORTHEAST WASHINGTON AND NORTHERN IDAHO PANHANDLE...

CITY           SKY/WX    TMP DP  RH WIND       PRES   REMARKS
SPOKANE INTL   MOSUNNY   81  48  31 S3        29.84S
SPOKANE DOWNTO SUNNY     84  49  29 SW8       29.83S
COEUR D ALENE  SUNNY     82  52  34 SE3       29.83F
DEER PARK      SUNNY     80  48  32 VRB3      29.84S
SANDPOINT      SUNNY     81  50  34 SW3       29.82F
BONNERS FERRY  FAIR      77  54  44 S5        29.83S

...SOUTHEAST WASHINGTON AND SOUTHERN IDAHO PANHANDLE...

CITY           SKY/WX    TMP DP  RH WIND       PRES   REMARKS
WALLA WALLA    SUNNY     91  45  20 SW16      29.79F
PULLMAN/MOSCOW SUNNY     82  48  30 S5        29.88F
LEWISTON       SUNNY     85  49  28 CALM      29.80F
LOWELL           N/A     78  52  40 N3        29.84F

...COLUMBIA BASIN...

CITY           SKY/WX    TMP DP  RH WIND       PRES   REMARKS
EPHRATA        SUNNY     95  42  16 N12G18    29.75F HX  91
MOSES LAKE     SUNNY     90  48  23 VRB3      29.77F
TRI CITIES     SUNNY     89  53  29 VRB3      29.75F
HERMISTON      SUNNY     88  50  27 W10       29.77F
PENDLETON      SUNNY     89  42  19 VRB7      29.81F

...EAST SLOPES CASCADES...

CITY           SKY/WX    TMP DP  RH WIND       PRES   REMARKS
THE DALLES     SUNNY     86  53  32 NW12      29.77F
YAKIMA         SUNNY     91  46  21 VRB3      29.79F
ELLENSBURG     SUNNY     89  46  22 NW16      29.81F
WENATCHEE      SUNNY     90  42  18 NW13      29.78F
OMAK           SUNNY     90  42  18 N17G23    29.80F

...SOUTHERN BRITISH COLUMBIA...

CITY           SKY/WX    TMP DP  RH WIND       PRES   REMARKS
PENTICTON      MOSUNNY   82  50  32 N13       29.85S
CASTLEGAR      MOSUNNY   81  52  36 NE7       29.81F
CRANBROOK      MOSUNNY   82  43  24 NE8       29.84F

...WESTERN MONTANA...

CITY           SKY/WX    TMP DP  RH WIND       PRES   REMARKS
MISSOULA       SUNNY     80  43  26 S8        29.89F

...NEIGHBORING CITIES...

CITY           SKY/WX    TMP DP  RH WIND       PRES   REMARKS
SEATTLE        SUNNY     72  55  55 VRB3      29.90S
CALGARY        PTSUNNY   68  46  45 SE5       29.95F



USA.gov is the U.S. government's official web portal to all federal, state and local government web resources and services.